Lid_Strength_Index
2 2 2 3 3 2 2 1 1 3 4 5 6 7 7 6 6 6 6 6 7 8
2 2 2 3 3 2 2 1 3 3 5 5 7 7 7 6 6 6 7 7 7 8
2 2 2 3 4 2 2 3 4 5 6 7 6 6 6 6 6 7 7 7 9 10
2 2 2 3 3 3 3 4 5 6 7 7 7 6 6 7 7 7 8 8 9 10
2 2 3 3 2 2 2 3 5 6 6 6 5 6 7 7 8 9 10 10 10 11
2 3 3 2 3 2 4 6 5 5 5 6 6 7 7 8 9 10 10 11 11 11
2 2 2 2 2 4 5 5 5 5 5 6 7 8 9 10 11 11 11 11 11 12
2 2 2 3 3 3 4 5 5 6 6 7 7 8 9 10 11 11 12 12 11 11
2 2 3 3 6 7 7 7 7 9 8 9 8 10 9 9 11 11 11 12 13 12
2 2 4 5 7 7 9 9 9 9 10 10 11 11 11 9 11 12 12 13 14 11
4 7 7 7 8 7 9 10 10 10 11 11 11 12 12 12 12 13 13 13 12 11
7 7 7 8 8 8 9 10 11 11 12 12 13 12 13 13 13 14 12 11 10 10
6 8 8 8 8 9 10 10 11 12 12 12 13 13 12 13 13 11 11 10 10 8
7 8 9 9 10 10 10 12 12 13 13 13 13 13 12 10 10 10 9 9 10 9